Location: Asheville, NC
(35.6000°N, 82.5500°W)
Time: 03:52:38
(UTC-04:00)

Vanguard 2 - Pass Details

Date: 11 December 2017
Orbit: 553 x 2939 km, 32.9° (Epoch: 16 July)

Event Time Altitude Azimuth Distance (km) Brightness Sun altitude
Rises 17:35:44 0° 255° (WSW) 3,766 13.3 -4.2°
Reaches altitude 10° 17:38:54 10° 252° (WSW) 2,502 12.0 -4.7°
Maximum altitude 17:44:18 58° 174° (S) 765 7.7 -5.7°
Drops below altitude 10° 17:48:19 10° 95° (E) 1,866 9.0 -6.5°
Enters shadow 17:49:12 - 93° (E) 2,225 9.4 -6.6°
Sets 17:50:23 0° 91° (E) 2,717 - -6.9°
